Wind_Speed
12 14 10 10 9 12 12 7 10 8 12 14 16 16 16 15 11 5 6 5 6 7 7 7 7 8 9 9 9 8 8 8 8 9 9 8 8 7 8 8 10 15 18 22
9 10 9 5 7 8 10 10 13 12 11 17 15 12 15 14 13 10 8 5 3 6 9 10 11 12 13 13 13 12 10 9 9 10 9 8 8 7 9 11 16 21 24 26
8 6 7 3 8 10 10 14 15 14 12 14 11 4 11 10 10 13 12 10 6 6 8 11 12 11 10 10 10 11 11 10 10 10 10 9 8 9 13 18 22 26 28 31
10 6 7 7 9 11 12 11 10 13 14 14 20 11 8 11 9 9 9 9 8 9 10 10 9 10 11 11 13 11 10 12 12 10 12 12 11 14 19 21 26 30 33 36
13 10 10 10 13 12 7 8 12 15 18 15 13 11 10 11 11 13 9 11 14 15 14 13 10 9 12 14 15 15 14 13 13 13 12 14 16 19 21 24 31 36 39 42
16 13 12 10 17 15 8 6 12 12 14 14 12 6 5 6 8 15 14 14 17 18 16 18 17 17 18 20 17 17 15 15 15 15 14 16 19 21 22 29 38 42 45 46
18 14 13 16 19 16 11 11 14 14 14 14 14 11 4 9 11 6 15 19 13 18 21 22 22 23 23 21 18 16 13 14 17 18 16 20 22 25 26 35 42 46 45 46
20 17 18 17 20 22 21 15 14 15 15 16 18 13 10 10 14 14 13 14 14 13 17 21 20 19 19 19 16 13 14 17 20 20 18 22 26 29 32 41 44 43 44 47
19 17 20 20 23 23 21 19 16 17 19 20 19 19 15 15 17 16 12 12 14 15 17 18 17 17 17 15 14 14 16 19 21 21 23 28 31 36 41 41 42 46 45 48
18 21 17 22 27 26 19 18 19 20 23 22 17 16 16 13 11 15 13 14 18 18 17 18 17 16 16 17 18 17 20 22 24 26 29 32 35 38 38 40 44 41 46 52
19 24 22 24 26 25 26 24 22 18 21 21 14 12 16 15 16 17 19 21 20 19 20 18 17 17 18 19 19 20 24 27 30 32 34 35 38 39 38 40 44 48 51 57
21 24 26 26 28 28 29 29 27 21 21 21 21 9 16 19 18 19 20 21 20 20 21 21 21 21 22 22 24 27 30 31 32 34 34 37 39 41 42 43 44 54 55 59
20 23 26 28 33 31 30 26 26 28 26 20 21 12 16 19 20 23 27 28 28 24 25 25 25 26 27 30 32 33 34 36 37 38 37 39 40 45 45 46 49 59 61 62
23 25 26 28 27 24 30 27 29 29 24 18 16 17 18 22 23 26 29 31 29 27 23 22 27 30 31 33 35 35 35 33 35 36 38 40 45 46 49 49 61 59 61 64
25 27 26 24 26 27 27 25 25 27 26 25 15 21 20 21 24 27 30 28 25 22 22 23 25 27 30 32 33 33 34 34 34 34 42 42 42 44 52 52 57 58 61 61
26 26 23 24 26 30 29 25 25 26 29 28 25 25 25 26 26 26 29 29 28 26 24 25 27 29 30 30 33 34 33 33 37 39 42 46 44 45 51 54 57 57 61 61
27 27 24 26 27 29 32 22 26 26 27 28 25 25 29 29 30 30 30 30 29 30 29 28 29 30 32 33 34 35 37 40 42 45 47 48 49 51 52 55 57 58 61 60
29 28 28 29 30 33 25 24 23 25 26 28 28 30 32 33 32 32 30 31 30 29 29 29 30 31 33 33 35 38 41 43 46 48 49 50 51 53 55 56 58 59 60 61
28 30 31 33 30 28 23 19 23 27 25 27 29 30 31 31 32 31 30 30 30 29 29 30 31 32 33 36 38 41 43 45 47 49 50 51 52 54 55 57 57 57 56 70
30 32 30 32 33 31 23 23 28 29 25 24 27 29 30 30 30 31 31 30 30 30 31 32 31 33 36 38 41 43 46 48 49 50 51 52 53 54 55 57 58 60 63 67
32 33 31 30 34 32 29 28 28 31 25 29 29 31 30 30 31 31 31 30 30 31 31 32 34 36 38 41 43 46 47 48 49 51 53 54 54 55 56 57 59 62 65 66
33 34 32 32 33 36 30 31 28 31 31 31 32 33 32 31 29 28 27 28 28 30 32 34 36 39 41 43 45 46 48 50 51 52 53 53 55 56 58 61 63 65 66 68
36 35 33 33 33 34 32 31 31 32 33 30 30 31 30 28 27 25 26 28 30 32 34 36 39 41 43 45 47 49 51 51 53 53 53 55 57 59 61 64 65 66 68 71
34 32 31 32 33 34 33 33 33 33 30 31 32 31 29 26 27 28 30 31 33 35 37 39 41 43 46 48 51 52 53 53 53 53 55 57 59 62 65 66 67 68 72 76
38 33 30 32 32 35 32 34 36 31 31 31 29 27 26 28 29 31 33 35 37 39 41 43 45 48 50 53 54 54 54 53 53 55 57 60 63 65 67 67 69 72 76 80
38 36 33 30 31 37 31 33 31 29 27 28 27 26 28 30 32 34 36 38 40 43 45 47 50 52 53 54 55 55 54 54 55 56 59 63 66 68 68 69 71 74 77 81
Wind_Direction
322 313 282 236 244 232 267 253 250 230 198 201 170 169 151 144 131 141 145 152 160 141 149 141 152 165 161 165 165 172 190 209 222 230 241 252 260 274 275 269 276 281 285 287
299 286 279 248 229 236 244 249 247 262 204 188 179 183 171 161 153 136 144 128 165 159 156 164 169 175 175 175 185 189 206 223 231 240 255 261 269 270 274 281 280 281 291 298
276 290 301 272 232 209 235 242 236 218 206 199 204 231 209 197 182 167 163 149 168 178 175 179 183 183 186 186 197 206 215 229 229 240 254 250 255 261 270 275 283 291 296 298
259 291 252 269 245 234 205 207 219 217 205 210 197 202 212 222 211 179 158 163 185 202 215 221 233 228 231 226 227 231 229 233 238 238 245 253 258 267 273 276 293 297 302 305
246 251 258 253 201 191 190 203 208 211 223 224 232 217 211 214 216 199 201 234 222 224 222 225 223 248 249 247 247 251 255 245 235 242 254 267 272 278 287 279 300 304 306 308
247 242 251 208 190 199 200 208 218 226 242 249 248 248 217 217 220 223 239 231 220 206 215 219 226 246 244 250 247 249 250 252 246 254 270 284 286 292 299 289 301 306 305 305
233 239 242 201 192 204 214 221 226 228 236 244 248 267 219 253 257 232 236 246 248 223 220 222 229 234 242 246 248 253 256 255 263 269 277 292 295 299 297 296 303 305 304 304
228 235 226 220 205 223 239 238 246 255 264 266 263 254 270 263 256 265 260 257 260 241 229 218 218 223 229 235 249 258 269 271 272 268 279 294 295 297 297 301 300 302 302 305
235 230 239 228 212 216 232 246 253 274 285 282 269 268 246 267 261 243 253 266 271 253 221 216 222 226 232 247 260 271 277 285 281 285 296 295 302 302 304 303 300 300 304 303
243 230 231 211 211 221 220 240 257 271 282 284 277 265 262 270 256 251 262 263 264 246 235 233 232 235 244 255 264 279 289 291 292 291 292 296 300 301 301 304 304 302 302 298
242 228 225 223 221 225 231 237 251 268 270 288 281 283 262 267 262 260 260 265 265 251 249 249 251 252 258 267 278 287 289 292 293 293 296 296 299 297 300 299 295 297 294 292
250 235 237 237 237 220 229 240 256 258 282 264 268 259 259 270 273 271 270 266 258 249 257 265 268 275 274 282 289 286 288 294 291 294 294 296 299 302 298 294 285 290 290 294
254 248 243 238 244 248 247 246 255 258 275 257 268 276 278 268 269 269 268 270 272 267 259 259 265 270 274 280 281 281 284 286 287 292 296 294 293 294 291 281 279 289 292 295
248 251 248 246 250 255 255 258 257 265 252 261 265 277 273 272 270 271 272 275 278 280 277 261 257 261 263 269 270 274 278 286 289 289 290 294 292 291 289 277 289 295 291 294
250 254 254 253 253 249 253 256 254 255 262 258 267 272 268 267 275 285 286 290 287 275 267 268 265 263 258 263 272 279 285 284 284 286 292 294 294 286 290 289 294 295 295 297
245 254 257 254 247 244 251 257 259 255 254 263 277 273 282 284 288 291 287 281 281 280 271 268 267 269 272 277 280 284 289 293 296 294 294 295 297 294 295 296 295 295 297 298
241 252 256 260 258 257 258 257 250 253 255 265 268 277 281 284 283 285 281 276 270 266 269 271 274 276 279 284 290 296 299 298 299 300 301 300 299 298 297 297 299 299 299 299
242 245 251 257 261 259 266 252 253 257 258 269 276 279 281 283 283 281 276 274 272 268 268 272 277 281 287 293 297 298 299 300 301 301 301 301 300 299 299 299 301 301 302 301
245 246 251 258 268 271 266 268 271 270 268 275 280 282 281 281 280 277 272 270 269 270 275 281 286 290 292 294 295 297 299 300 300 300 300 300 299 299 300 302 300 303 281 296
245 252 253 259 262 264 270 271 273 272 277 290 279 273 272 274 274 270 269 271 273 278 282 284 286 290 293 296 299 301 300 300 300 300 300 298 299 299 300 300 301 301 298 296
245 255 259 261 264 262 268 271 275 274 298 279 281 278 275 272 271 273 275 276 278 281 283 286 290 294 298 300 300 300 300 300 301 300 300 299 299 300 301 300 300 298 297 298
248 257 262 261 262 262 272 271 273 281 286 282 282 281 278 275 274 274 275 276 280 284 288 293 297 299 299 300 300 301 301 301 300 299 300 301 302 301 301 302 302 300 299 300
249 256 263 267 270 268 266 269 277 283 283 277 278 276 275 276 276 276 279 285 289 292 294 295 296 298 300 302 303 303 302 301 301 301 302 302 303 303 304 304 302 300 300 301
251 259 263 265 263 266 268 274 280 281 279 272 273 276 279 275 278 282 286 289 291 292 293 296 299 301 302 303 304 303 302 302 302 302 303 304 304 305 305 304 303 303 303 304
251 252 261 266 272 271 266 270 273 278 276 275 275 273 272 277 280 283 287 289 291 294 298 299 300 301 302 303 303 303 302 302 302 303 305 307 307 307 306 305 304 305 307 309
247 249 257 269 275 269 259 262 275 277 274 272 271 272 276 278 281 285 287 290 294 298 300 300 301 301 302 303 303 302 301 301 301 304 307 310 311 308 307 306 306 307 308 308
Height
5743 5743 5742 5743 5744 5745 5747 5750 5750 5750 5750 5752 5753 5753 5753 5754 5757 5759 5759 5759 5760 5760 5763 5763 5766 5768 5769 5771 5772 5772 5773 5773 5774 5775 5775 5775 5776 5775 5775 5777 5776 5777 5776 5776
5744 5743 5742 5742 5743 5745 5746 5748 5748 5749 5750 5752 5753 5753 5754 5754 5756 5758 5759 5759 5761 5761 5763 5764 5765 5767 5768 5768 5770 5770 5771 5772 5772 5772 5772 5771 5771 5771 5771 5772 5773 5773 5772 5770
5742 5743 5742 5742 5743 5743 5744 5745 5746 5748 5749 5751 5752 5754 5755 5756 5755 5757 5759 5759 5762 5763 5763 5764 5765 5765 5765 5765 5766 5766 5767 5768 5769 5768 5768 5768 5767 5767 5769 5770 5769 5768 5766 5764
5740 5740 5741 5741 5743 5743 5743 5744 5746 5747 5749 5751 5752 5754 5754 5755 5757 5758 5758 5762 5763 5763 5763 5763 5764 5764 5764 5764 5764 5765 5766 5766 5765 5765 5766 5766 5765 5765 5766 5765 5764 5761 5758 5755
5739 5739 5739 5739 5741 5744 5745 5745 5745 5746 5748 5749 5751 5751 5752 5753 5755 5757 5758 5760 5760 5760 5761 5760 5760 5760 5760 5760 5761 5761 5762 5762 5763 5762 5762 5763 5762 5761 5759 5757 5755 5753 5750 5745
5736 5737 5738 5737 5740 5743 5744 5745 5744 5745 5746 5749 5749 5750 5750 5752 5753 5754 5755 5756 5756 5757 5757 5757 5757 5757 5757 5756 5757 5757 5757 5758 5758 5758 5757 5757 5756 5754 5752 5751 5748 5744 5740 5736
5733 5735 5736 5736 5739 5741 5742 5743 5744 5745 5744 5745 5747 5747 5749 5749 5749 5751 5752 5753 5754 5753 5754 5754 5754 5754 5753 5753 5754 5754 5755 5756 5755 5753 5750 5750 5748 5747 5746 5744 5740 5736 5731 5728
5730 5733 5733 5735 5736 5739 5740 5742 5743 5743 5744 5745 5744 5745 5746 5746 5746 5748 5749 5749 5750 5751 5752 5751 5751 5751 5751 5751 5752 5752 5752 5753 5750 5747 5744 5745 5743 5741 5739 5736 5732 5728 5723 5719
5726 5729 5729 5731 5733 5736 5737 5739 5740 5740 5740 5740 5741 5741 5744 5742 5743 5743 5745 5747 5747 5748 5749 5749 5748 5748 5749 5749 5749 5748 5747 5746 5745 5740 5740 5738 5735 5733 5730 5727 5723 5718 5713 5709
5722 5724 5726 5726 5729 5731 5734 5737 5737 5736 5735 5736 5737 5736 5739 5739 5739 5740 5741 5744 5744 5744 5745 5745 5745 5745 5745 5745 5744 5743 5741 5740 5738 5735 5733 5730 5728 5725 5722 5718 5714 5708 5704 5700
5718 5720 5724 5726 5726 5728 5730 5731 5732 5733 5731 5731 5732 5735 5735 5736 5737 5737 5738 5739 5738 5740 5740 5739 5739 5739 5739 5739 5738 5737 5736 5734 5731 5728 5726 5723 5720 5717 5713 5710 5706 5700 5695 5690
5714 5715 5718 5723 5722 5723 5724 5726 5728 5728 5728 5727 5727 5733 5732 5733 5733 5733 5732 5733 5733 5734 5734 5735 5734 5734 5733 5732 5731 5730 5728 5727 5723 5721 5718 5715 5711 5708 5705 5702 5697 5691 5685 5679
5709 5710 5712 5716 5717 5721 5721 5721 5722 5722 5722 5722 5723 5727 5728 5729 5729 5728 5727 5726 5726 5729 5729 5730 5729 5728 5728 5726 5725 5723 5722 5718 5715 5712 5709 5706 5704 5701 5697 5693 5687 5681 5675 5668
5702 5703 5706 5710 5715 5716 5715 5718 5717 5717 5716 5717 5719 5721 5723 5722 5722 5722 5722 5721 5721 5720 5721 5723 5723 5722 5721 5719 5717 5716 5714 5712 5708 5705 5702 5698 5695 5691 5686 5682 5676 5670 5664 5658
5697 5698 5701 5705 5707 5707 5709 5711 5711 5711 5713 5712 5716 5714 5717 5718 5717 5716 5715 5714 5714 5713 5713 5713 5713 5711 5711 5710 5710 5708 5706 5704 5701 5698 5694 5689 5685 5680 5674 5669 5663 5658 5651 5646
5693 5694 5697 5698 5700 5701 5702 5705 5705 5706 5706 5708 5709 5709 5711 5710 5710 5710 5709 5708 5707 5706 5705 5705 5704 5703 5702 5702 5700 5698 5696 5694 5692 5688 5684 5679 5673 5667 5662 5656 5650 5645 5638 5631
5688 5690 5692 5693 5695 5695 5695 5702 5700 5699 5700 5703 5702 5704 5702 5702 5702 5702 5701 5700 5699 5698 5698 5697 5697 5696 5694 5693 5691 5689 5685 5682 5679 5674 5669 5664 5659 5654 5649 5643 5636 5631 5623 5615
5681 5685 5686 5687 5687 5685 5693 5694 5695 5695 5695 5695 5695 5696 5695 5694 5694 5693 5692 5691 5691 5690 5690 5689 5689 5688 5686 5684 5681 5678 5675 5671 5666 5661 5656 5651 5646 5641 5635 5628 5623 5616 5607 5601
5676 5679 5679 5679 5681 5683 5685 5691 5691 5689 5691 5690 5690 5689 5687 5685 5685 5685 5684 5683 5683 5682 5682 5681 5680 5679 5677 5675 5671 5668 5664 5660 5655 5650 5645 5639 5634 5627 5621 5615 5608 5602 5596 5587
5669 5672 5674 5673 5674 5675 5682 5685 5684 5682 5685 5685 5683 5680 5678 5677 5677 5676 5675 5676 5676 5675 5674 5673 5672 5670 5668 5665 5661 5657 5653 5649 5643 5638 5633 5627 5621 5615 5609 5602 5595 5588 5581 5572
5663 5663 5666 5667 5668 5670 5674 5676 5676 5676 5682 5674 5674 5673 5671 5670 5669 5669 5669 5669 5669 5668 5667 5665 5663 5661 5658 5654 5650 5646 5641 5636 5631 5625 5619 5613 5608 5602 5595 5588 5581 5573 5564 5556
5657 5659 5660 5662 5662 5663 5668 5669 5669 5669 5668 5667 5665 5665 5664 5663 5663 5663 5663 5662 5662 5660 5658 5656 5653 5651 5647 5644 5639 5634 5629 5623 5618 5612 5606 5600 5594 5587 5580 5572 5564 5555 5547 5539
5648 5652 5655 5656 5657 5659 5659 5662 5662 5661 5659 5658 5658 5657 5657 5657 5656 5656 5655 5654 5653 5651 5649 5647 5644 5641 5636 5631 5626 5621 5615 5609 5603 5597 5591 5585 5578 5571 5564 5556 5548 5540 5530 5522
5640 5643 5646 5648 5650 5650 5652 5653 5653 5652 5651 5650 5649 5650 5650 5650 5649 5649 5648 5646 5644 5642 5640 5637 5633 5628 5624 5619 5613 5607 5601 5595 5589 5582 5576 5570 5564 5556 5548 5539 5531 5523 5513 5502
5633 5636 5639 5640 5642 5643 5644 5645 5642 5643 5642 5642 5642 5643 5643 5642 5642 5641 5640 5638 5635 5632 5629 5625 5620 5616 5611 5605 5599 5593 5586 5580 5574 5568 5562 5555 5548 5540 5532 5522 5514 5505 5493 5480
5624 5628 5631 5632 5634 5632 5633 5633 5635 5635 5634 5634 5635 5635 5635 5634 5633 5632 5630 5627 5624 5620 5616 5612 5607 5602 5596 5590 5584 5578 5572 5565 5559 5553 5546 5539 5531 5522 5514 5506 5498 5487 5478 5466